This is the latest recevied weather packets stored in our database for station/object K8RRT. If no packets are shown the sender has not sent any weather packets the latest 10 day(s).
| Time | Temp. | Humidity | Pressure | Rain* | Wind** | Luminosity | Snow |
|---|---|---|---|---|---|---|---|
| 1777138412 | 20.56° C | 76% | 1006 hPa | 0 mm | - | 351 W/m² | - |
| 1777138108 | 20.56° C | 77% | 1006.1 hPa | 0 mm | - | 276 W/m² | - |
| 1777137805 | 20.56° C | 76% | 1006.2 hPa | 0 mm | - | 193 W/m² | - |
| 1777137501 | 20.56° C | 75% | 1006.2 hPa | 0 mm | - | 223 W/m² | - |
| 1777137198 | 20.56° C | 76% | 1006.1 hPa | 0 mm | - | 225 W/m² | - |
| 1777136895 | 20.56° C | 77% | 1006.3 hPa | 0 mm | - | 162 W/m² | - |
| 1777136591 | 20.56° C | 76% | 1006 hPa | 0 mm | - | 94 W/m² | - |
| 1777136289 | 20.56° C | 75% | 1006 hPa | 0 mm | - | 72 W/m² | - |
| 1777135987 | 20.56° C | 74% | 1006.2 hPa | 0 mm | - | 160 W/m² | - |
| 1777135687 | 20.56° C | 75% | 1006.2 hPa | 0 mm | - | 363 W/m² | - |
| 1777135384 | 20.56° C | 77% | 1006.3 hPa | 0 mm | - | 337 W/m² | - |
| 1777135081 | 20.56° C | 77% | 1006.3 hPa | 0 mm | - | 491 W/m² | - |
| 1777134778 | 20° C | 78% | 1006.2 hPa | 0 mm | - | 199 W/m² | - |
| 1777134473 | 20° C | 77% | 1006.3 hPa | 0 mm | - | 143 W/m² | - |
| 1777134170 | 20° C | 78% | 1006.4 hPa | 0 mm | - | 157 W/m² | - |
| 1777133867 | 20° C | 77% | 1006.5 hPa | 0 mm | - | 191 W/m² | - |
| 1777133563 | 20° C | 77% | 1006.3 hPa | 0 mm | - | 118 W/m² | - |
| 1777133262 | 20° C | 77% | 1006.5 hPa | 0 mm | - | 119 W/m² | - |
| 1777132962 | 20° C | 77% | 1006.6 hPa | 0 mm | - | 148 W/m² | - |
| 1777132658 | 20° C | 77% | 1006.5 hPa | 0 mm | - | 223 W/m² | - |
| 1777132355 | 20° C | 77% | 1006.6 hPa | 0 mm | - | 245 W/m² | - |
| 1777132052 | 20° C | 77% | 1006.6 hPa | 0 mm | - | 277 W/m² | - |
| 1777131747 | 20° C | 78% | 1006.5 hPa | 0 mm | - | 268 W/m² | - |
| 1777131444 | 20° C | 77% | 1006.7 hPa | 0 mm | - | 271 W/m² | - |
| 1777131144 | 20° C | 78% | 1006.5 hPa | 0 mm | - | 330 W/m² | - |
* Rain latest hour (hover to see other rain measurements)
** Current wind speed in m/s (hover to see current wind gust speed)